This is the latest recevied weather packets stored in our database for station/object DL5TW-13. If no packets are shown the sender has not sent any weather packets the latest 10 day(s).
| Time | Temp. | Humidity | Pressure | Rain* | Wind** | Luminosity | Snow |
|---|---|---|---|---|---|---|---|
| 1778025338 | 11.11° C | 91% | 1001.1 hPa | 0.51 mm | - | - | - |
| 1778025037 | 11.11° C | 91% | 1001.1 hPa | 0.51 mm | - | - | - |
| 1778024737 | 11.67° C | 91% | 1001.1 hPa | 0.51 mm | - | - | - |
| 1778024437 | 11.67° C | 91% | 1001.1 hPa | 0.51 mm | - | - | - |
| 1778024137 | 11.67° C | 91% | 1001.1 hPa | 0.51 mm | - | - | - |
| 1778023836 | 11.67° C | 91% | 1001.1 hPa | 0.51 mm | - | - | - |
| 1778023536 | 11.67° C | 91% | 1001.2 hPa | 1.02 mm | - | - | - |
| 1778023236 | 11.67° C | 91% | 1001.2 hPa | 1.02 mm | - | - | - |
| 1778022935 | 11.67° C | 91% | 1001.1 hPa | 1.02 mm | - | - | - |
| 1778022635 | 11.67° C | 91% | 1001.2 hPa | 0.51 mm | - | - | - |
| 1778022335 | 11.67° C | 91% | 1001.2 hPa | 0.51 mm | - | - | - |
| 1778022034 | 11.67° C | 91% | 1001.2 hPa | 1.02 mm | - | - | - |
| 1778021734 | 11.67° C | 91% | 1001.2 hPa | 1.02 mm | - | - | - |
| 1778021434 | 11.67° C | 91% | 1001.3 hPa | 1.02 mm | - | - | - |
| 1778021134 | 11.67° C | 91% | 1001.3 hPa | 1.52 mm | - | - | - |
| 1778020833 | 12.22° C | 91% | 1001.2 hPa | 1.52 mm | - | - | - |
| 1778020533 | 12.22° C | 91% | 1001.2 hPa | 1.52 mm | - | - | - |
| 1778020233 | 12.22° C | 91% | 1001.1 hPa | 1.52 mm | - | - | - |
| 1778019933 | 12.22° C | 91% | 1001.3 hPa | 1.52 mm | - | - | - |
| 1778019632 | 12.22° C | 91% | 1001.4 hPa | 1.52 mm | - | - | - |
| 1778019332 | 12.22° C | 91% | 1001.4 hPa | 2.03 mm | - | - | - |
| 1778019032 | 12.22° C | 90% | 1001.5 hPa | 2.54 mm | - | - | - |
| 1778018731 | 12.22° C | 90% | 1001.5 hPa | 2.54 mm | - | - | - |
| 1778018431 | 12.22° C | 90% | 1001.6 hPa | 2.54 mm | - | - | - |
| 1778018131 | 12.22° C | 90% | 1001.6 hPa | 3.05 mm | - | - | - |
* Rain latest hour (hover to see other rain measurements)
** Current wind speed in m/s (hover to see current wind gust speed)